{"data":{"norad_id":59232,"intl_designator":"2024-049B","name":"STARLINK-31305","alt_names":[],"object_type":"PAYLOAD","status":"ACTIVE","operator":null,"country":"US","launch_date":"2024-03-16","launch_site_code":"AFETR","launch_vehicle":null,"mission":null,"orbit_class":"UNKNOWN","rcs_meters":null,"size_class":null,"mass_kg":null,"dimensions":null,"purposes":["comms"],"wikipedia_slug":null,"has_3d_model":false,"image_url":null,"decayed_at":null,"tle_current":{"epoch":"2026-05-25T03:51:06.487200Z","epoch_age_seconds":57059,"freshness":"FRESH","line1":"1 59232U 24049B   26145.16049175  .00001296  00000+0  56599-4 0  9996","line2":"2 59232  43.0017  71.4525 0000684 280.7742  79.3033 15.27582631124080","mean_motion":15.27582631,"eccentricity":6.84e-5,"inclination_deg":43.0017,"raan_deg":71.4525,"arg_perigee_deg":280.7742,"mean_anomaly_deg":79.3033,"bstar":5.6599e-5,"rev_number":12408,"period_min":94.266586355288,"perigee_km":482.57191330036,"apogee_km":483.51052248057,"semimajor_km":6861.1782178905,"source":"CELESTRAK","updated_at":"2026-05-25T13:38:18.869102Z"}}}